Theta_e
304 303 302 300 299 299 299 299 299 298 298 299 299 298 298 298 298 298 299 299 299 299 299 299 299 299 300 301 302 302 302 302 302 301 302 302 302 301 299 299 299 299 299
303 302 300 299 299 299 299 298 297 297 297 297 296 297 297 297 296 296 296 296 296 296 297 298 299 300 301 301 301 301 301 301 302 301 300 302 301 301 300 299 298 299 299
301 300 299 299 299 299 298 297 296 295 295 296 297 297 296 296 296 296 296 296 296 296 296 297 299 300 300 299 299 299 299 299 300 301 301 300 299 301 298 300 299 299 298
300 300 299 299 299 298 297 296 294 294 296 297 297 297 296 296 296 296 295 296 296 296 296 296 296 297 297 297 297 297 298 299 298 297 297 298 297 299 297 299 299 299 298
300 299 299 299 298 297 295 294 295 297 297 296 297 296 296 296 296 296 296 296 296 297 297 297 297 296 296 296 296 296 295 295 296 297 297 297 296 297 298 297 298 298 297
299 299 299 297 296 295 294 295 297 297 296 296 296 296 296 296 296 297 297 297 297 297 297 296 296 296 295 294 293 292 292 293 293 294 295 297 296 296 297 297 297 297 296
299 299 297 296 294 293 295 296 296 296 296 296 296 296 295 295 295 296 296 297 297 296 296 295 295 294 293 292 292 291 292 293 293 293 293 294 295 296 297 297 297 296 296
299 297 295 295 294 294 296 296 296 296 296 296 295 295 295 295 295 295 296 296 296 295 294 293 293 292 292 291 291 291 292 293 293 293 293 294 295 295 296 296 295 295 295
297 296 297 294 294 295 296 296 296 296 296 295 295 295 295 295 294 295 295 294 294 293 292 292 291 291 291 290 290 290 291 292 294 294 294 295 295 295 295 294 294 294 294
297 300 294 294 295 296 296 295 295 295 295 294 294 294 294 294 293 293 293 293 292 291 291 290 290 290 290 290 290 290 291 293 294 294 295 294 294 294 294 293 293 293 294
300 293 294 295 296 295 295 295 295 294 292 290 289 290 291 291 291 291 291 291 291 290 290 290 289 290 290 291 291 292 293 293 293 294 294 294 294 294 294 294 293 293 294
293 294 295 295 295 295 293 291 289 289 289 289 289 289 289 289 289 290 291 291 290 289 289 289 289 290 290 291 292 293 293 293 293 293 292 293 292 292 292 293 292 293 293
294 294 293 291 290 289 289 288 288 289 289 289 289 289 289 289 288 289 290 290 290 289 289 290 290 290 291 291 292 293 292 292 292 291 291 290 290 290 290 291 291 291 291
292 290 289 289 289 289 288 288 289 289 289 289 289 289 289 288 287 288 289 289 289 289 289 289 289 289 290 291 292 292 291 291 290 290 289 289 289 289 289 289 290 290 291
289 289 289 289 288 288 289 289 289 289 289 288 288 288 287 287 286 287 289 289 288 288 288 288 288 289 289 291 291 291 290 290 289 289 288 288 288 288 288 289 289 290 290
290 289 288 288 288 288 289 289 289 289 289 288 288 288 287 287 286 285 288 289 289 288 288 288 288 288 288 289 290 290 289 289 289 289 288 287 287 288 288 289 289 290 289
290 289 289 289 289 289 289 289 290 290 289 289 289 288 287 287 286 284 287 288 289 288 288 287 287 287 288 288 289 288 288 289 288 288 287 288 288 288 288 288 289 288 288
289 289 289 289 290 290 290 289 289 289 289 289 289 288 288 287 286 284 285 288 289 288 287 287 287 287 287 288 288 288 288 288 288 288 288 288 288 288 288 288 288 288 287
288 288 288 288 288 289 289 289 289 289 288 288 288 288 287 287 286 285 284 287 287 288 287 287 287 287 287 287 288 287 288 288 288 288 288 288 289 288 288 288 288 288 287
288 288 287 287 287 287 288 288 288 288 288 288 288 287 286 286 285 285 283 286 287 287 287 287 287 287 287 287 287 287 287 288 288 288 288 288 289 289 288 288 288 287 287
287 287 286 286 287 287 288 288 288 288 288 288 287 287 286 284 284 284 283 283 286 287 287 287 286 287 287 287 287 287 287 287 288 288 288 288 289 289 288 288 287 287 287
287 287 288 288 288 288 287 287 287 287 287 287 287 286 286 285 284 284 283 282 285 286 287 287 287 286 287 287 287 287 287 287 288 288 288 288 288 288 288 287 287 287 286
289 289 289 289 289 289 289 289 287 287 287 286 286 285 285 285 284 283 283 281 282 286 286 287 287 286 286 287 287 287 287 287 287 288 287 287 288 288 287 287 287 286 284
290 290 291 291 290 290 289 289 288 287 286 286 285 285 284 284 284 283 282 281 280 283 286 286 287 286 286 286 286 287 287 287 287 287 287 287 287 287 287 287 285 282 281
291 290 289 288 287 287 287 286 286 286 285 284 284 283 283 283 282 282 281 281 280 280 284 286 287 286 286 286 286 286 286 287 287 287 287 286 287 287 286 285 282 281 281
285 285 285 284 284 285 285 284 284 283 283 282 282 282 282 281 280 280 279 279 279 279 281 285 286 286 286 286 286 286 286 287 287 286 286 286 286 285 284 282 281 281 281
Wind_Speed
18 13 9 6 5 4 6 10 12 13 16 18 19 21 22 24 25 26 27 27 27 27 26 28 29 28 30 28 26 26 26 25 26 40 29 27 27 29 34 34 31 27 27
18 14 11 8 6 6 9 11 13 16 18 20 21 22 23 24 25 24 24 23 23 24 25 25 25 25 24 26 27 29 27 24 25 33 39 35 30 27 29 32 30 31 31
19 15 11 8 7 8 10 13 15 17 19 20 20 22 23 21 19 18 19 21 22 23 23 24 26 28 29 28 27 25 29 30 28 30 37 31 32 30 31 31 26 29 28
19 14 10 8 8 10 13 15 16 17 18 19 19 19 18 16 16 18 19 20 21 22 22 23 25 28 30 33 35 35 34 37 36 33 35 32 33 33 32 31 31 27 27
18 13 10 8 10 13 14 14 15 16 17 17 16 13 13 15 16 18 19 20 22 23 24 24 25 27 31 32 35 35 33 33 36 36 36 33 34 28 30 31 34 33 34
16 12 8 8 12 13 12 13 14 14 14 12 11 11 12 13 16 17 20 23 24 26 28 29 30 31 31 31 32 30 28 29 31 33 34 31 33 30 32 33 33 35 35
14 9 7 10 10 12 12 11 12 11 9 9 10 12 12 16 20 23 24 23 24 26 28 30 33 32 31 28 29 29 29 28 26 27 33 32 33 31 31 32 33 33 35
10 8 7 10 13 11 9 10 11 10 10 11 11 11 14 17 21 24 26 26 26 28 28 29 30 31 29 30 30 29 28 28 27 27 29 28 27 25 28 29 30 34 31
8 6 9 14 12 10 9 9 10 10 10 11 12 14 16 18 21 25 26 27 28 29 30 31 31 31 29 26 29 27 29 28 23 23 20 20 20 23 24 28 32 28 26
6 11 13 11 11 11 9 9 10 11 11 13 14 16 16 17 21 23 24 26 28 31 35 35 34 32 28 24 23 25 29 26 23 19 17 18 19 23 25 26 25 26 23
12 13 10 10 9 8 8 8 8 8 9 10 12 14 15 17 20 22 23 26 29 34 36 37 35 32 26 21 19 22 23 22 19 17 18 20 20 22 19 17 16 17 20
13 11 9 6 4 3 2 1 3 6 8 11 15 17 19 21 21 22 24 26 27 33 36 36 34 29 22 17 17 16 15 17 19 19 19 20 18 15 11 10 9 11 11
13 10 8 7 6 5 5 5 5 7 11 15 18 22 26 28 28 26 25 27 29 32 32 32 30 24 17 15 14 13 15 19 20 17 15 13 12 10 6 4 4 2 3
13 12 11 9 8 7 5 4 5 9 13 15 20 23 27 29 30 29 30 30 30 31 32 31 26 20 15 15 13 14 17 18 14 12 11 9 6 3 3 4 4 5 6
16 14 12 9 7 4 1 3 7 10 14 18 21 24 27 30 30 27 27 29 30 30 32 30 25 21 18 15 15 15 16 13 12 11 7 5 1 2 4 6 6 8 13
17 14 11 9 7 4 3 5 8 9 12 15 18 21 24 26 30 27 25 25 26 27 27 25 22 19 18 17 15 14 12 11 10 7 3 2 3 4 6 7 7 11 17
15 13 10 8 6 7 8 10 11 11 13 15 18 20 22 25 28 28 24 24 24 24 22 22 21 19 18 16 14 11 10 9 7 3 3 4 5 6 6 7 11 16 19
14 11 8 7 8 10 12 14 16 18 19 18 17 20 22 24 27 28 24 24 24 23 21 19 19 19 19 16 12 8 7 6 3 2 3 5 6 6 7 10 15 18 20
12 10 8 9 11 12 14 16 18 20 21 22 23 22 23 23 26 28 24 21 24 23 22 20 18 18 18 15 10 6 5 4 1 2 4 6 7 6 9 13 16 18 20
11 10 12 13 15 16 17 18 20 22 23 24 24 25 25 26 26 28 27 20 21 22 22 21 18 18 17 15 10 6 4 3 3 4 5 7 8 8 12 15 18 21 22
13 14 15 18 19 19 21 23 23 24 25 25 24 23 23 25 25 26 28 22 20 22 21 21 19 17 16 15 10 7 5 5 6 8 7 9 10 11 14 17 19 20 21
17 18 20 23 23 25 26 26 27 27 27 26 25 23 23 23 24 25 26 23 19 20 20 20 19 17 16 15 11 8 6 6 9 11 10 11 12 13 15 18 18 19 19
22 24 25 27 28 28 29 30 31 31 30 27 26 25 24 24 24 24 25 25 21 19 19 19 19 18 16 15 12 11 9 8 9 12 13 14 16 17 17 18 19 20 20
24 25 27 28 29 29 30 29 29 29 29 28 27 26 25 25 25 25 24 26 24 20 19 19 17 18 16 15 13 12 12 12 11 12 14 16 19 20 20 20 21 21 21
27 29 29 28 28 27 27 27 27 28 29 28 27 26 26 27 26 26 25 26 25 22 20 19 18 16 16 16 15 14 14 14 13 13 15 16 19 22 23 24 24 24 22
23 22 22 23 24 24 25 24 24 25 26 26 26 26 26 26 27 27 27 26 25 23 22 20 18 17 15 16 15 15 15 16 15 15 16 19 22 25 25 25 25 25 24
Wind_Direction
182 180 183 189 190 233 277 286 288 298 300 300 299 302 304 303 302 300 298 297 295 297 298 296 297 300 302 302 288 283 285 285 281 290 294 299 301 305 306 309 311 313 303
184 185 188 191 214 257 277 286 298 302 303 303 304 305 306 307 305 303 302 303 305 306 307 306 302 299 298 300 299 295 287 284 281 286 292 293 297 302 299 302 306 314 314
185 187 190 206 242 266 285 299 304 304 304 307 309 312 312 309 310 312 313 311 311 310 310 304 300 300 299 299 298 297 292 292 290 287 292 294 297 299 306 303 302 311 309
187 190 202 227 256 285 297 302 304 305 306 308 312 310 309 312 312 309 310 312 312 312 308 303 300 297 298 297 296 293 292 290 290 288 290 290 298 299 304 302 305 305 305
188 194 212 246 284 295 297 303 304 304 307 309 306 309 310 313 315 312 312 314 317 316 314 312 308 302 296 295 295 293 290 285 285 285 284 289 294 296 303 306 303 308 307
191 204 234 276 291 294 303 303 304 308 306 304 310 317 321 322 318 314 311 313 314 317 316 313 309 307 304 302 304 302 300 300 286 279 280 280 286 288 293 299 300 304 311
197 216 248 279 293 295 298 305 310 309 303 311 314 314 317 322 320 316 315 313 314 314 313 314 315 317 316 311 307 304 301 298 292 287 274 276 277 281 287 290 290 293 297
204 227 258 296 284 280 290 300 305 310 312 313 316 317 315 319 318 316 315 316 315 316 318 319 321 320 319 313 309 302 298 294 290 292 285 282 270 273 278 280 284 287 287
207 257 293 274 261 265 274 290 304 311 312 309 309 312 313 317 316 319 321 322 322 323 325 326 325 320 319 314 308 306 306 302 297 293 287 283 269 274 277 279 280 279 283
237 274 258 255 256 260 273 289 302 308 311 312 319 324 330 333 336 339 337 331 327 328 329 328 328 327 322 315 310 310 310 313 306 300 290 288 284 280 277 271 268 267 270
255 243 245 249 253 267 279 287 300 317 336 348 352 355 357 353 350 348 339 335 332 330 328 328 327 328 324 316 314 312 309 310 310 303 298 293 287 282 278 268 257 252 253
222 223 226 226 224 225 217 52 19 11 7 3 1 356 354 352 348 344 338 335 333 329 328 328 328 328 320 317 321 318 320 317 310 301 296 296 292 287 281 270 258 254 241
203 197 182 173 165 143 108 78 35 12 6 1 357 356 355 352 346 342 338 335 334 329 330 330 330 328 322 329 325 324 324 322 315 308 303 299 295 291 284 284 278 253 219
183 173 169 162 150 132 110 63 21 8 2 359 357 355 352 350 344 341 338 336 334 334 336 338 335 332 326 327 323 329 329 323 319 315 311 307 302 279 199 175 162 142 148
169 170 167 161 158 153 142 13 2 352 350 355 355 352 349 347 343 339 334 332 335 335 334 337 336 334 329 327 319 324 327 328 331 329 326 325 336 155 158 148 143 140 133
173 175 175 183 196 221 276 321 329 339 344 345 344 342 341 341 342 338 331 330 333 332 332 334 334 330 331 326 320 320 329 335 341 343 353 51 111 135 140 140 139 146 137
176 181 192 210 236 271 292 302 308 314 326 330 333 337 338 337 340 339 331 331 332 332 335 339 339 335 330 327 319 320 331 338 349 10 57 87 109 123 127 129 141 145 140
186 197 217 240 265 282 292 301 310 317 319 324 328 328 331 335 340 340 332 333 333 338 337 337 337 333 329 325 317 318 329 337 349 60 95 103 108 119 126 137 146 145 143
202 217 239 261 273 281 289 298 305 307 311 318 322 326 327 333 338 341 337 339 336 332 337 335 334 328 326 322 309 306 316 313 289 153 131 124 119 123 131 140 146 147 143
227 245 262 272 278 284 290 295 296 299 305 310 317 323 326 330 337 341 342 334 333 328 328 330 327 323 320 317 300 291 293 270 209 177 153 141 134 135 143 144 146 147 144
251 261 268 272 278 284 285 284 286 290 295 299 306 313 317 323 330 336 337 333 325 328 321 324 322 318 314 310 294 275 265 242 206 186 173 161 153 153 155 154 153 152 150
255 262 267 271 277 278 280 282 280 283 288 292 297 302 307 311 319 325 330 330 321 319 322 314 317 310 307 302 286 263 250 235 210 198 190 181 171 168 167 164 163 161 158
262 266 270 272 275 278 278 280 277 276 280 283 289 294 300 304 310 315 321 327 320 313 316 310 308 306 296 290 277 253 236 224 216 210 206 197 187 181 178 176 173 167 164
270 274 277 279 281 282 282 282 279 273 273 278 282 288 294 297 300 303 309 316 315 309 307 309 297 303 290 281 271 250 231 218 214 216 212 207 199 189 185 182 177 172 165
278 281 281 283 284 284 283 281 277 272 270 275 281 284 287 290 293 297 301 305 306 302 299 301 296 291 290 273 264 248 230 217 213 212 210 204 201 191 185 182 177 173 170
286 285 284 283 284 281 279 278 276 274 275 278 279 280 282 285 289 293 297 299 296 297 292 296 296 277 286 268 259 244 227 215 210 209 206 195 187 183 180 181 180 177 174